Weather History for KGDV - July, 2013

Change the Weather History Date:

Monday, July 22, 2013

  Actual Average Record
Temperature  
Mean Temperature 66 °F -  
Max Temperature 80 °F 84 °F 100 °F (2007)
Min Temperature 53 °F 57 °F 50 °F (1998)
Cooling Degree Days 2    
Growing Degree Days 16 (Base 50)    
Moisture  
Dew Point 53 °F    
Average Humidity 61    
Maximum Humidity 88    
Minimum Humidity 39    
Precipitation  
Precipitation 0.00 in - - ()
Sea Level Pressure  
Sea Level Pressure 29.92 in    
Wind  
Wind Speed 9 mph (NE)    
Max Wind Speed 16 mph    
Max Gust Speed 22 mph    
Visibility 10 miles    
Events      
Averages and records for this station are not official NWS values.
T = Trace of Precipitation, MM = Missing Value Source: NWS Daily Summary

Daily Weather History Graph

Daily Weather History Graph

Search for Another Location

Airport or City:

Trip Planner

Search our weather history database for the weather conditions in past years. The results will help you decide how hot, cold, wet, or windy it might be!

Date:

Astronomy

Jul. 22, 2013 Rise Set
Actual Time 5:26 AM MDT 8:44 PM MDT
Civil Twilight 4:49 AM MDT 9:21 PM MDT
Nautical Twilight 4:00 AM MDT 10:09 PM MDT
Astronomical Twilight 2:58 AM MDT 11:10 PM MDT
Moon 8:24 PM MDT (7/22) 5:30 AM MDT (7/22)
Length of Visible Light 16h 31m
Length of Day
15h 17m
Full, 100% of the Moon is Illuminated
Jul 22
Full
Jul 22
Full
Jul 29
Last Quarter
Aug 6
New
Aug 14
First Quarter

Hourly Weather History & Observations

Time (MDT) Temp. Heat Index Dew Point Humidity Pressure Visibility Wind Dir Wind Speed Gust Speed Precip Events Conditions
12:15 AM 62.6 °F - 53.6 °F 72% 29.90 in 10.0 mi North 5.8 mph - N/A   Clear
12:35 AM 62.6 °F - 51.8 °F 68% 29.90 in 10.0 mi NNE 8.1 mph - N/A   Clear
12:56 AM 62.6 °F - 53.6 °F 72% 29.90 in 10.0 mi NNE 8.1 mph - N/A   Clear
1:15 AM 62.6 °F - 51.8 °F 68% 29.91 in 10.0 mi North 9.2 mph - N/A   Clear
1:35 AM 62.6 °F - 51.8 °F 68% 29.91 in 10.0 mi North 8.1 mph - N/A   Clear
1:55 AM 60.8 °F - 51.8 °F 72% 29.91 in 10.0 mi North 6.9 mph - N/A   Clear
2:15 AM 60.8 °F - 51.8 °F 72% 29.91 in 10.0 mi NNE 6.9 mph - N/A   Clear
2:35 AM 55.4 °F - 48.2 °F 77% 29.91 in 10.0 mi NW 3.5 mph - N/A   Clear
2:55 AM 55.4 °F - 48.2 °F 77% 29.91 in 10.0 mi NW 4.6 mph - N/A   Clear
3:15 AM 55.4 °F - 48.2 °F 77% 29.91 in 10.0 mi NNW 4.6 mph - N/A   Clear
3:35 AM 53.6 °F - 48.2 °F 82% 29.92 in 10.0 mi NW 5.8 mph - N/A   Clear
3:55 AM 53.6 °F - 48.2 °F 82% 29.92 in 10.0 mi NW 5.8 mph - N/A   Clear
4:15 AM 53.6 °F - 48.2 °F 82% 29.92 in 10.0 mi NNW 8.1 mph - N/A   Clear
4:35 AM 53.6 °F - 50.0 °F 88% 29.93 in 10.0 mi NNW 6.9 mph - N/A   Clear
4:55 AM 53.6 °F - 50.0 °F 88% 29.93 in 10.0 mi NNW 8.1 mph - N/A   Clear
5:15 AM 55.4 °F - 51.8 °F 88% 29.93 in 10.0 mi NNW 9.2 mph - N/A   Clear
5:35 AM 55.4 °F - 51.8 °F 88% 29.93 in 10.0 mi NNW 8.1 mph - N/A   Clear
5:55 AM 53.6 °F - 50.0 °F 88% 29.93 in 10.0 mi NNW 5.8 mph - N/A   Clear
6:15 AM 55.4 °F - 51.8 °F 88% 29.94 in 10.0 mi NNW 6.9 mph - N/A   Clear
6:35 AM 57.2 °F - 51.8 °F 82% 29.94 in 10.0 mi North 3.5 mph - N/A   Clear
6:55 AM 59.0 °F - 53.6 °F 82% 29.94 in 10.0 mi NNE 5.8 mph - N/A   Clear
7:15 AM 60.8 °F - 53.6 °F 77% 29.95 in 10.0 mi NE 5.8 mph - N/A   Clear
7:35 AM 60.8 °F - 53.6 °F 77% 29.95 in 10.0 mi NE 6.9 mph - N/A   Clear
8:15 AM 64.4 °F - 53.6 °F 68% 29.96 in 10.0 mi ENE 10.4 mph - N/A   Clear
8:55 AM 64.4 °F - 53.6 °F 68% 29.96 in 10.0 mi ENE 9.2 mph - N/A   Clear
9:15 AM 66.2 °F - 53.6 °F 64% 29.96 in 10.0 mi ENE 10.4 mph - N/A   Clear
9:35 AM 66.2 °F - 53.6 °F 64% 29.96 in 10.0 mi East 10.4 mph - N/A   Clear
9:55 AM 66.2 °F - 53.6 °F 64% 29.95 in 10.0 mi ENE 10.4 mph - N/A   Clear
10:15 AM 66.2 °F - 53.6 °F 64% 29.95 in 10.0 mi East 9.2 mph - N/A   Clear
10:35 AM 68.0 °F - 53.6 °F 60% 29.96 in 10.0 mi East 9.2 mph 16.1 mph N/A   Clear
10:55 AM 69.8 °F - 53.6 °F 56% 29.96 in 10.0 mi NE 8.1 mph - N/A   Clear
11:15 AM 69.8 °F - 53.6 °F 56% 29.96 in 10.0 mi NE 8.1 mph - N/A   Clear
11:35 AM 69.8 °F - 53.6 °F 56% 29.96 in 10.0 mi ENE 10.4 mph - N/A   Clear
11:55 AM 71.6 °F - 53.6 °F 53% 29.95 in 10.0 mi East 11.5 mph - N/A   Clear
12:15 PM 71.6 °F - 53.6 °F 53% 29.95 in 10.0 mi NE 6.9 mph - N/A   Clear
12:35 PM 71.6 °F - 53.6 °F 53% 29.94 in 10.0 mi ENE 9.2 mph - N/A   Clear
12:55 PM 73.4 °F - 53.6 °F 50% 29.93 in 10.0 mi NE 11.5 mph - N/A   Clear
1:15 PM 75.2 °F - 53.6 °F 47% 29.93 in 10.0 mi ENE 6.9 mph - N/A   Clear
1:35 PM 75.2 °F - 51.8 °F 44% 29.93 in 10.0 mi ENE 12.7 mph 17.3 mph N/A   Clear
1:55 PM 75.2 °F - 53.6 °F 47% 29.93 in 10.0 mi ENE 13.8 mph 18.4 mph N/A   Clear
2:15 PM 75.2 °F - 53.6 °F 47% 29.92 in 10.0 mi ENE 13.8 mph 17.3 mph N/A   Clear
2:35 PM 78.8 °F - 53.6 °F 42% 29.92 in 10.0 mi East 9.2 mph 19.6 mph N/A   Clear
2:55 PM 78.8 °F - 51.8 °F 39% 29.92 in 10.0 mi ENE 12.7 mph - N/A   Clear
3:15 PM 78.8 °F - 51.8 °F 39% 29.91 in 10.0 mi East 15.0 mph 20.7 mph N/A   Clear
3:35 PM 78.8 °F - 53.6 °F 42% 29.91 in 10.0 mi East 11.5 mph 17.3 mph N/A   Clear
3:55 PM 78.8 °F - 53.6 °F 42% 29.91 in 10.0 mi East 13.8 mph - N/A   Clear
4:15 PM 80.6 °F 80.3 °F 53.6 °F 39% 29.90 in 10.0 mi East 11.5 mph 17.3 mph N/A   Clear
4:35 PM 80.6 °F 80.3 °F 53.6 °F 39% 29.90 in 10.0 mi ESE 11.5 mph - N/A   Clear
4:55 PM 80.6 °F 80.3 °F 53.6 °F 39% 29.90 in 10.0 mi East 12.7 mph - N/A   Clear
5:15 PM 80.6 °F 80.3 °F 53.6 °F 39% 29.89 in 10.0 mi East 10.4 mph - N/A   Clear
5:35 PM 80.6 °F 80.3 °F 53.6 °F 39% 29.89 in 10.0 mi East 9.2 mph - N/A   Clear
5:55 PM 80.6 °F 80.3 °F 53.6 °F 39% 29.89 in 10.0 mi ENE 10.4 mph 16.1 mph N/A   Clear
6:15 PM 78.8 °F - 53.6 °F 42% 29.89 in 10.0 mi ENE 11.5 mph - N/A   Clear
6:35 PM 78.8 °F - 53.6 °F 42% 29.89 in 10.0 mi ENE 13.8 mph - N/A   Clear
6:55 PM 77.0 °F - 53.6 °F 44% 29.89 in 10.0 mi ENE 13.8 mph 18.4 mph N/A   Clear
7:15 PM 75.2 °F - 51.8 °F 44% 29.90 in 10.0 mi ENE 13.8 mph - N/A   Clear
7:35 PM 75.2 °F - 51.8 °F 44% 29.91 in 10.0 mi NE 10.4 mph - N/A   Mostly Cloudy
7:55 PM 75.2 °F - 53.6 °F 47% 29.90 in 10.0 mi ENE 10.4 mph - N/A   Mostly Cloudy
8:15 PM 73.4 °F - 53.6 °F 50% 29.89 in 10.0 mi ENE 16.1 mph 21.9 mph N/A   Clear
8:35 PM 71.6 °F - 53.6 °F 53% 29.89 in 10.0 mi ENE 12.7 mph - N/A   Clear
8:55 PM 71.6 °F - 53.6 °F 53% 29.91 in 10.0 mi ENE 11.5 mph - N/A   Clear
9:15 PM 71.6 °F - 53.6 °F 53% 29.90 in 10.0 mi NE 16.1 mph - N/A   Clear
9:35 PM 69.8 °F - 55.4 °F 60% 29.92 in 10.0 mi NE 15.0 mph - N/A   Clear
9:55 PM 69.8 °F - 55.4 °F 60% 29.93 in 10.0 mi NE 16.1 mph - N/A   Clear
10:15 PM 68.0 °F - 55.4 °F 64% 29.94 in 10.0 mi ENE 13.8 mph - N/A   Clear
10:55 PM 66.2 °F - 53.6 °F 64% 29.94 in 10.0 mi NE 12.7 mph - N/A   Scattered Clouds
11:15 PM 66.2 °F - 53.6 °F 64% 29.95 in 10.0 mi NE 16.1 mph - N/A   Clear
11:35 PM 64.4 °F - 53.6 °F 68% 29.97 in 10.0 mi NE 13.8 mph - N/A   Scattered Clouds
11:55 PM 64.4 °F - 53.6 °F 68% 29.98 in 10.0 mi East 11.5 mph - N/A   Mostly Cloudy